Location: Carbonear
(47.7333°N, 53.2500°W)
Time: 22:14:21
(UTC+00:00)

STRAND 1 - Pass Details

Date: 06 December 2022
Orbit: 768 x 779 km, 98.4° (Epoch: 01 February)

Event Time Altitude Azimuth Distance (km) Brightness Sun altitude
Exits shadow 22:19:58 25° 166° (SSE) 1,520 ? -25.7°
Drops below altitude 10° 22:22:08 10° 177° (S) 2,303 ? -26.1°
Sets 22:24:29 0° 182° (S) 3,226 ? -26.5°
